User: anonymous   Login
Location: Bullfrog
(37.5121°N, 110.7330°W)
Time: 16:28:53
(UTC-07:00)
Language:

ISS - Orbit

View from above orbital plane
View from above orbital plane
View from above satellite
View from above satellite

Ground track
Ground track

The orbit is defined by the following mean orbital elements,

1 25544U          26041.53604394 +.00000000 +00000-0 +19516-3 0 00005
2 25544  51.6312 206.5863 0011092  84.3744 275.8509 15.48525084    01
Epoch (UTC): 10 February 2026 12:51:54
Eccentricity: 0.0011092
inclination: 51.6312°
perigee height: 413 km
apogee height: 429 km
right ascension of ascending node: 206.5863°
argument of perigee: 84.3744°
revolutions per day: 15.48525084
mean anomaly at epoch: 275.8509°

The dashed part of the orbit path shows where the satellite is in the earth's shadow,  

DLR